Time,TemperatureF,DewpointF,PressureIn,WindDirection,WindDirectionDegrees,WindSpeedMPH,WindSpeedGustMPH,Humidity,HourlyPrecipIn,Conditions,Clouds,dailyrainin,SoftwareType,DateUTC
2013-09-03 00:04:00,63.0,-99.9,-100.00,North,-999,-999.0,-999.0,-999,0.00,,,0.72,,2013-09-03 04:04:00,
2013-09-03 00:10:00,62.0,-99.9,-100.00,North,-999,-999.0,-999.0,-999,-99.99,,,0.72,,2013-09-03 04:10:00,
2013-09-03 00:44:00,62.0,-99.9,-100.00,North,-999,-999.0,-999.0,-999,-99.99,,,0.72,,2013-09-03 04:44:00,
2013-09-03 00:54:00,62.0,-99.9,-100.00,North,-999,-999.0,-999.0,-999,-99.99,,,0.72,,2013-09-03 04:54:00,
2013-09-03 01:03:00,62.0,-99.9,-100.00,North,-999,-999.0,-999.0,-999,-99.99,,,0.72,,2013-09-03 05:03:00,
2013-09-03 01:10:00,61.0,-99.9,-100.00,North,-999,-999.0,-999.0,-999,-99.99,,,0.72,,2013-09-03 05:10:00,
2013-09-03 01:43:00,61.0,-99.9,-100.00,North,-999,-999.0,-999.0,-999,-99.99,,,0.72,,2013-09-03 05:43:00,
2013-09-03 01:52:00,61.0,-99.9,-100.00,North,-999,-999.0,-999.0,-999,-99.99,,,0.72,,2013-09-03 05:52:00,
2013-09-03 02:02:00,61.0,-99.9,-100.00,North,-999,-999.0,-999.0,-999,-99.99,,,0.72,,2013-09-03 06:02:00,
2013-09-03 02:10:00,61.0,-99.9,-100.00,North,-999,-999.0,-999.0,-999,-99.99,,,0.69,,2013-09-03 06:10:00,
2013-09-03 02:43:00,61.0,-99.9,-100.00,North,-999,-999.0,-999.0,-999,-99.99,,,0.69,,2013-09-03 06:43:00,
2013-09-03 02:52:00,61.0,-99.9,-100.00,North,-999,-999.0,-999.0,-999,-99.99,,,0.69,,2013-09-03 06:52:00,
2013-09-03 03:02:00,61.0,-99.9,-100.00,North,-999,-999.0,-999.0,-999,-99.99,,,0.69,,2013-09-03 07:02:00,
2013-09-03 03:10:00,59.0,-99.9,-100.00,North,-999,-999.0,-999.0,-999,-99.99,,,0.46,,2013-09-03 07:10:00,
2013-09-03 03:42:00,59.0,-99.9,-100.00,North,-999,-999.0,-999.0,-999,-99.99,,,0.46,,2013-09-03 07:42:00,
2013-09-03 03:53:00,59.0,-99.9,-100.00,North,-999,-999.0,-999.0,-999,-99.99,,,0.46,,2013-09-03 07:53:00,
2013-09-03 04:03:00,59.0,-99.9,-100.00,North,-999,-999.0,-999.0,-999,-99.99,,,0.46,,2013-09-03 08:03:00,
2013-09-03 04:10:00,59.0,-99.9,-100.00,North,-999,-999.0,-999.0,-999,-99.99,,,0.18,,2013-09-03 08:10:00,
2013-09-03 04:42:00,59.0,-99.9,-100.00,North,-999,-999.0,-999.0,-999,-99.99,,,0.18,,2013-09-03 08:42:00,
2013-09-03 04:52:00,59.0,-99.9,-100.00,North,-999,-999.0,-999.0,-999,-99.99,,,0.18,,2013-09-03 08:52:00,
2013-09-03 05:02:00,59.0,-99.9,-100.00,North,-999,-999.0,-999.0,-999,-99.99,,,0.18,,2013-09-03 09:02:00,
2013-09-03 05:10:00,58.0,-99.9,-100.00,North,-999,-999.0,-999.0,-999,0.00,,,0.06,,2013-09-03 09:10:00,
2013-09-03 05:43:00,58.0,-99.9,-100.00,North,-999,-999.0,-999.0,-999,0.00,,,0.06,,2013-09-03 09:43:00,
2013-09-03 05:53:00,58.0,-99.9,-100.00,North,-999,-999.0,-999.0,-999,0.00,,,0.06,,2013-09-03 09:53:00,
2013-09-03 06:03:00,58.0,-99.9,-100.00,North,-999,-999.0,-999.0,-999,0.00,,,0.06,,2013-09-03 10:03:00,
2013-09-03 06:10:00,58.0,-99.9,-100.00,North,-999,-999.0,-999.0,-999,-99.99,,,0.05,,2013-09-03 10:10:00,
2013-09-03 06:42:00,58.0,-99.9,-100.00,North,-999,-999.0,-999.0,-999,-99.99,,,0.05,,2013-09-03 10:42:00,
2013-09-03 06:53:00,58.0,-99.9,-100.00,North,-999,-999.0,-999.0,-999,-99.99,,,0.05,,2013-09-03 10:53:00,
2013-09-03 07:03:00,58.0,-99.9,-100.00,North,-999,-999.0,-999.0,-999,-99.99,,,0.05,,2013-09-03 11:03:00,
2013-09-03 07:10:00,60.0,-99.9,-100.00,North,-999,-999.0,-999.0,-999,0.00,,,0.05,,2013-09-03 11:10:00,
2013-09-03 07:43:00,60.0,-99.9,-100.00,North,-999,-999.0,-999.0,-999,0.00,,,0.05,,2013-09-03 11:43:00,
2013-09-03 07:52:00,60.0,-99.9,-100.00,North,-999,-999.0,-999.0,-999,0.00,,,0.05,,2013-09-03 11:52:00,
2013-09-03 08:02:00,60.0,-99.9,-100.00,North,-999,-999.0,-999.0,-999,0.00,,,0.05,,2013-09-03 12:02:00,
2013-09-03 08:10:00,62.0,-99.9,-100.00,North,-999,-999.0,-999.0,-999,0.00,,,0.05,,2013-09-03 12:10:00,
2013-09-03 08:42:00,62.0,-99.9,-100.00,North,-999,-999.0,-999.0,-999,0.00,,,0.05,,2013-09-03 12:42:00,
2013-09-03 08:52:00,62.0,-99.9,-100.00,North,-999,-999.0,-999.0,-999,0.00,,,0.05,,2013-09-03 12:52:00,
2013-09-03 09:02:00,62.0,-99.9,-100.00,North,-999,-999.0,-999.0,-999,0.00,,,0.05,,2013-09-03 13:02:00,
2013-09-03 09:10:00,66.0,-99.9,-100.00,North,-999,-999.0,-999.0,-999,0.00,,,0.04,,2013-09-03 13:10:00,
2013-09-03 09:42:00,66.0,-99.9,-100.00,North,-999,-999.0,-999.0,-999,0.00,,,0.04,,2013-09-03 13:42:00,
2013-09-03 09:52:00,66.0,-99.9,-100.00,North,-999,-999.0,-999.0,-999,0.00,,,0.04,,2013-09-03 13:52:00,
2013-09-03 10:02:00,66.0,-99.9,-100.00,North,-999,-999.0,-999.0,-999,0.00,,,0.04,,2013-09-03 14:02:00,
2013-09-03 10:42:00,69.0,-99.9,-100.00,North,-999,-999.0,-999.0,-999,-99.99,,,0.01,,2013-09-03 14:42:00,
2013-09-03 10:52:00,69.0,-99.9,-100.00,North,-999,-999.0,-999.0,-999,-99.99,,,0.01,,2013-09-03 14:52:00,
2013-09-03 11:02:00,69.0,-99.9,-100.00,North,-999,-999.0,-999.0,-999,-99.99,,,0.01,,2013-09-03 15:02:00,
2013-09-03 11:10:00,67.0,-99.9,-100.00,North,-999,-999.0,-999.0,-999,-99.99,,,0.02,,2013-09-03 15:10:00,
2013-09-03 11:44:00,67.0,-99.9,-100.00,North,-999,-999.0,-999.0,-999,-99.99,,,0.02,,2013-09-03 15:44:00,
2013-09-03 11:54:00,67.0,-99.9,-100.00,North,-999,-999.0,-999.0,-999,-99.99,,,0.02,,2013-09-03 15:54:00,
2013-09-03 12:04:00,67.0,-99.9,-100.00,North,-999,-999.0,-999.0,-999,-99.99,,,0.02,,2013-09-03 16:04:00,
2013-09-03 12:10:00,69.0,-99.9,-100.00,North,-999,-999.0,-999.0,-999,-99.99,,,0.02,,2013-09-03 16:10:00,
2013-09-03 12:43:00,69.0,-99.9,-100.00,North,-999,-999.0,-999.0,-999,-99.99,,,0.02,,2013-09-03 16:43:00,
2013-09-03 12:54:00,69.0,-99.9,-100.00,North,-999,-999.0,-999.0,-999,-99.99,,,0.02,,2013-09-03 16:54:00,
2013-09-03 13:04:00,69.0,-99.9,-100.00,North,-999,-999.0,-999.0,-999,-99.99,,,0.02,,2013-09-03 17:04:00,
2013-09-03 13:10:00,66.0,-99.9,-100.00,North,-999,-999.0,-999.0,-999,-99.99,,,0.01,,2013-09-03 17:10:00,
2013-09-03 13:43:00,66.0,-99.9,-100.00,North,-999,-999.0,-999.0,-999,-99.99,,,0.01,,2013-09-03 17:43:00,
2013-09-03 13:52:00,66.0,-99.9,-100.00,North,-999,-999.0,-999.0,-999,-99.99,,,0.01,,2013-09-03 17:52:00,
2013-09-03 14:02:00,66.0,-99.9,-100.00,North,-999,-999.0,-999.0,-999,-99.99,,,0.01,,2013-09-03 18:02:00,
2013-09-03 14:10:00,69.0,-99.9,-100.00,North,-999,-999.0,-999.0,-999,-99.99,,,0.01,,2013-09-03 18:10:00,
2013-09-03 14:43:00,69.0,-99.9,-100.00,North,-999,-999.0,-999.0,-999,-99.99,,,0.01,,2013-09-03 18:43:00,
2013-09-03 14:52:00,69.0,-99.9,-100.00,North,-999,-999.0,-999.0,-999,-99.99,,,0.01,,2013-09-03 18:52:00,
2013-09-03 15:02:00,69.0,-99.9,-100.00,North,-999,-999.0,-999.0,-999,-99.99,,,0.01,,2013-09-03 19:02:00,
2013-09-03 15:10:00,69.0,-99.9,-100.00,North,-999,-999.0,-999.0,-999,-99.99,,,0.01,,2013-09-03 19:10:00,
2013-09-03 15:42:00,69.0,-99.9,-100.00,North,-999,-999.0,-999.0,-999,-99.99,,,0.01,,2013-09-03 19:42:00,
2013-09-03 15:52:00,69.0,-99.9,-100.00,North,-999,-999.0,-999.0,-999,-99.99,,,0.01,,2013-09-03 19:52:00,
2013-09-03 16:02:00,69.0,-99.9,-100.00,North,-999,-999.0,-999.0,-999,-99.99,,,0.01,,2013-09-03 20:02:00,
2013-09-03 16:10:00,70.0,-99.9,-100.00,North,-999,-999.0,-999.0,-999,-99.99,,,0.01,,2013-09-03 20:10:00,
2013-09-03 16:42:00,70.0,-99.9,-100.00,North,-999,-999.0,-999.0,-999,-99.99,,,0.01,,2013-09-03 20:42:00,
2013-09-03 16:53:00,70.0,-99.9,-100.00,North,-999,-999.0,-999.0,-999,-99.99,,,0.01,,2013-09-03 20:53:00,
2013-09-03 17:02:00,70.0,-99.9,-100.00,North,-999,-999.0,-999.0,-999,-99.99,,,0.01,,2013-09-03 21:02:00,
2013-09-03 17:10:00,70.0,-99.9,-100.00,North,-999,-999.0,-999.0,-999,-99.99,,,0.00,,2013-09-03 21:10:00,
2013-09-03 17:44:00,70.0,-99.9,-100.00,North,-999,-999.0,-999.0,-999,-99.99,,,0.00,,2013-09-03 21:44:00,
2013-09-03 17:54:00,70.0,-99.9,-100.00,North,-999,-999.0,-999.0,-999,-99.99,,,0.00,,2013-09-03 21:54:00,
2013-09-03 18:04:00,70.0,-99.9,-100.00,North,-999,-999.0,-999.0,-999,-99.99,,,0.00,,2013-09-03 22:04:00,
2013-09-03 18:10:00,67.0,-99.9,-100.00,North,-999,-999.0,-999.0,-999,-99.99,,,0.00,,2013-09-03 22:10:00,
2013-09-03 18:43:00,67.0,-99.9,-100.00,North,-999,-999.0,-999.0,-999,-99.99,,,0.00,,2013-09-03 22:43:00,
2013-09-03 18:53:00,67.0,-99.9,-100.00,North,-999,-999.0,-999.0,-999,-99.99,,,0.00,,2013-09-03 22:53:00,
2013-09-03 19:04:00,67.0,-99.9,-100.00,North,-999,-999.0,-999.0,-999,-99.99,,,0.00,,2013-09-03 23:04:00,
2013-09-03 19:10:00,64.0,-99.9,-100.00,North,-999,-999.0,-999.0,-999,-99.99,,,-99.99,,2013-09-03 23:10:00,
2013-09-03 19:42:00,64.0,-99.9,-100.00,North,-999,-999.0,-999.0,-999,-99.99,,,-99.99,,2013-09-03 23:42:00,
2013-09-03 19:54:00,64.0,-99.9,-100.00,North,-999,-999.0,-999.0,-999,-99.99,,,-99.99,,2013-09-03 23:54:00,
2013-09-03 20:02:00,64.0,-99.9,-100.00,North,-999,-999.0,-999.0,-999,-99.99,,,-99.99,,2013-09-04 00:02:00,
2013-09-03 20:10:00,61.0,-99.9,-100.00,North,-999,-999.0,-999.0,-999,-99.99,,,-99.99,,2013-09-04 00:10:00,
2013-09-03 20:42:00,61.0,-99.9,-100.00,North,-999,-999.0,-999.0,-999,-99.99,,,-99.99,,2013-09-04 00:42:00,
2013-09-03 20:52:00,61.0,-99.9,-100.00,North,-999,-999.0,-999.0,-999,-99.99,,,-99.99,,2013-09-04 00:52:00,
2013-09-03 21:02:00,61.0,-99.9,-100.00,North,-999,-999.0,-999.0,-999,-99.99,,,-99.99,,2013-09-04 01:02:00,
2013-09-03 21:10:00,60.0,-99.9,-100.00,North,-999,-999.0,-999.0,-999,-99.99,,,-99.99,,2013-09-04 01:10:00,
2013-09-03 21:42:00,60.0,-99.9,-100.00,North,-999,-999.0,-999.0,-999,-99.99,,,-99.99,,2013-09-04 01:42:00,
2013-09-03 21:53:00,60.0,-99.9,-100.00,North,-999,-999.0,-999.0,-999,-99.99,,,-99.99,,2013-09-04 01:53:00,
2013-09-03 22:02:00,60.0,-99.9,-100.00,North,-999,-999.0,-999.0,-999,-99.99,,,-99.99,,2013-09-04 02:02:00,
2013-09-03 22:10:00,59.0,-99.9,-100.00,North,-999,-999.0,-999.0,-999,-99.99,,,-99.99,,2013-09-04 02:10:00,
2013-09-03 22:43:00,59.0,-99.9,-100.00,North,-999,-999.0,-999.0,-999,-99.99,,,-99.99,,2013-09-04 02:43:00,
2013-09-03 22:52:00,59.0,-99.9,-100.00,North,-999,-999.0,-999.0,-999,-99.99,,,-99.99,,2013-09-04 02:52:00,
2013-09-03 23:03:00,59.0,-99.9,-100.00,North,-999,-999.0,-999.0,-999,-99.99,,,-99.99,,2013-09-04 03:03:00,
2013-09-03 23:10:00,56.0,-99.9,-100.00,North,-999,-999.0,-999.0,-999,-99.99,,,-99.99,,2013-09-04 03:10:00,
2013-09-03 23:45:00,56.0,-99.9,-100.00,North,-999,-999.0,-999.0,-999,-99.99,,,-99.99,,2013-09-04 03:45:00,
2013-09-03 23:55:00,56.0,-99.9,-100.00,North,-999,-999.0,-999.0,-999,-99.99,,,-99.99,,2013-09-04 03:55:00,